sat.trackr.live / text

‹ back to catalog

FORMOSAT-5

NORAD 42920 · 2017-049A

PAYLOAD ACTIVE UNKNOWN

§ Identity

Operator
Country
ROC
Launch date
2017-08-24
Launch site
AFWTR
Launch vehicle
Mass (kg)
RCS (m²)

Purposes: earth_obs

External: N2YO · Heavens-Above · Gunter

§ Orbital elements

Epoch: 2026-09-20T03:40:26.010048Z

Period
99.25 min
Inclination
98.2181°
Eccentricity
0.0012167
Mean motion
14.50909033 rev/d
Perigee alt
714.0 km
Apogee alt
731.3 km
Semi-major
7,100.8 km
B*
2.4215e-5
RAAN
336.3174°
Arg perigee
146.3531°
Mean anomaly
213.8439°
Rev number
48,044

§ Raw data

FORMOSAT-51 42920U 17049A   26263.15307882  .00000052  00000+0  24215-4 0  99952 42920  98.2181 336.3174 0012167 146.3531 213.8439 14.50909033480449

JSON: /api/v1/satellites/42920 · /tle

For live sub-satellite position, see the globe view (requires WebGL).

§ Visibility from observer

Set your observer location to see the next 7 days of passes ≥ 10°. The values pass through the URL so the page stays shareable.

No JS? Fill the form by hand. The geolocation button needs JavaScript.

§ Radio — SatNOGS DB

ModeDescriptionDownlinkUplink
FM Downlink 401.051 MHz
FM Mode S 2.215 GHz

2 transmitters · refreshed weekly from db.satnogs.org